Location: Montreal
(45.5000°N, 73.5833°W)
Time: 12:18:15
(UTC-05:00)

Vanguard 2 - All Passes

Search period start: 14 December 2017 00:00
Search period end: 24 December 2017 00:00
Orbit: 553 x 2939 km, 32.9° (Epoch: 14 December)

Date Brightness Start Highest point End Pass type
(mag) Time Alt. Az. Time Alt. Az. Time Alt. Az.
14 Dec - 14:18:21 10° SSW 14:23:23 17° SSE 14:27:17 10° SE daylight
14 Dec - 16:26:50 10° SW 16:31:25 21° S 16:34:57 10° SE daylight
14 Dec - 18:36:49 10° SW 18:38:48 13° SSW 18:40:37 10° S visible
15 Dec - 12:29:44 10° S 12:32:41 12° SSE 12:35:19 10° SE daylight
15 Dec - 14:35:20 10° SW 14:41:21 21° S 14:45:45 10° SE daylight
15 Dec - 16:44:40 10° SW 16:49:16 21° S 16:52:48 10° SE visible
16 Dec - 12:44:48 10° SSW 12:50:41 16° SSE 12:55:18 10° SE daylight
16 Dec - 14:52:42 10° SW 14:59:17 24° S 15:03:55 10° ESE daylight
16 Dec - 17:02:40 10° WSW 17:07:03 20° SSW 17:10:30 10° SE visible
17 Dec - 13:01:10 10° SSW 13:08:39 21° SSE 13:14:07 10° ESE daylight
17 Dec - 15:10:19 10° SW 15:17:11 27° S 15:21:56 10° SE daylight
17 Dec - 17:20:50 10° WSW 17:24:49 18° SSW 17:28:00 10° SSE visible
18 Dec - 11:11:58 10° S 11:17:27 14° SSE 11:22:04 10° SE daylight
18 Dec - 13:18:06 10° SW 13:26:37 25° SSE 13:32:32 10° ESE daylight
18 Dec - 15:28:07 10° WSW 15:35:04 28° S 15:39:49 10° SE daylight
18 Dec - 17:39:15 10° WSW 17:42:31 15° SSW 17:45:14 10° S visible
19 Dec - 11:27:15 10° SSW 11:35:25 19° SSE 11:41:43 10° ESE daylight
19 Dec - 13:35:26 10° SW 13:44:36 29° S 13:50:43 10° ESE daylight
19 Dec - 15:46:05 10° WSW 15:52:54 28° SSW 15:57:35 10° SE daylight
19 Dec - 17:58:14 10° SW 18:00:08 12° SSW 18:01:50 10° S visible
20 Dec - 11:43:31 10° SSW 11:53:23 24° SSE 12:00:32 10° ESE daylight
20 Dec - 13:53:00 10° SW 14:02:31 33° S 14:08:45 10° ESE daylight
20 Dec - 16:04:09 10° WSW 16:10:41 26° SSW 16:15:15 10° SE daylight
21 Dec - 09:54:34 10° S 10:01:42 15° SSE 10:07:45 10° ESE daylight
21 Dec - 12:00:22 10° SW 12:11:21 29° SSE 12:18:58 10° ESE daylight
21 Dec - 14:10:46 10° WSW 14:20:27 35° S 14:26:40 10° ESE daylight
21 Dec - 16:22:23 10° WSW 16:28:23 23° SSW 16:32:43 10° SSE daylight
22 Dec - 10:09:41 10° SSW 10:19:36 20° SSE 10:27:28 10° ESE daylight
22 Dec - 12:17:35 10° SW 12:29:19 34° S 12:37:10 10° ESE daylight
22 Dec - 14:28:41 10° WSW 14:38:19 35° S 14:44:30 10° SE daylight
22 Dec - 16:40:47 10° WSW 16:46:01 19° SSW 16:49:58 10° SSE visible
23 Dec - 10:25:47 10° SSW 10:37:31 26° SSE 10:46:22 10° ESE daylight
23 Dec - 12:35:04 10° SW 12:47:17 37° S 12:55:14 10° ESE daylight
23 Dec - 14:46:43 10° WSW 14:56:08 34° SSW 15:02:15 10° SE daylight
23 Dec - 16:59:33 10° WSW 17:03:33 15° SW 17:06:47 10° S visible
